When you browse on this site, cookies collect data to enhance your experience and personalize the content and advertising you see.
Visit our Privacy Policy to learn more. By continuing to use the site, you agree to this use of cookies and data.
  • în România
  • Lista ţărilor
  • Pe 7 zile
  • Temperatura apei
  • Hartă satelitară
  • Meteo pe hartă
  • Widget-uri
  • user-avatar
    Intrare

    Meteo pe oră la Pamporovo

    Astăzi, 22 Mai, Miercuri

    Timp Temperatura Precipitaţii Vânt Presiune Umiditate
    00:00 +5°C° 0 mm 2 m/s 622 mmHg 78%
    01:00 +5°C° 0 mm 2 m/s 622 mmHg 76%
    02:00 +6°C° 0 mm 1 m/s 622 mmHg 75%
    03:00 +5°C° 0 mm 1 m/s 622 mmHg 74%
    04:00 +5°C° 0 mm 1 m/s 622 mmHg 74%
    05:00 +5°C° 0 mm 1 m/s 622 mmHg 74%
    06:00 +8°C° 0 mm 1 m/s 623 mmHg 66%
    07:00 +11°C° 0 mm 1 m/s 625 mmHg 58%
    08:00 +13°C° 0 mm 1 m/s 626 mmHg 50%
    09:00 +15°C° 0 mm 1 m/s 626 mmHg 47%
    10:00 +16°C° 0 mm 1 m/s 627 mmHg 45%
    11:00 +17°C° 0 mm 2 m/s 627 mmHg 42%
    12:00 +17°C° 0 mm 2 m/s 627 mmHg 45%
    13:00 +16°C° 0 mm 2 m/s 626 mmHg 48%
    14:00 +16°C° 0 mm 2 m/s 626 mmHg 51%
    15:00 +15°C° 0.2 mm 2 m/s 626 mmHg 56%
    16:00 +15°C° 0.2 mm 2 m/s 625 mmHg 61%
    17:00 +14°C° 0.2 mm 2 m/s 625 mmHg 67%
    18:00 +12°C° 0.2 mm 2 m/s 624 mmHg 75%
    19:00 +10°C° 0.2 mm 1 m/s 623 mmHg 83%
    20:00 +9°C° 0.2 mm 1 m/s 623 mmHg 91%
    21:00 +8°C° 0 mm 1 m/s 623 mmHg 90%
    22:00 +8°C° 0 mm 1 m/s 623 mmHg 89%
    23:00 +7°C° 0 mm 1 m/s 623 mmHg 88%

    Mâine, 23 Mai, Joi

    Timp Temperatura Precipitaţii Vânt Presiune Umiditate
    00:00 +7°C° 0 mm 1 m/s 623 mmHg 87%
    01:00 +7°C° 0 mm 1 m/s 622 mmHg 86%
    02:00 +7°C° 0 mm 1 m/s 622 mmHg 85%
    03:00 +7°C° 0 mm 1 m/s 622 mmHg 84%
    04:00 +6°C° 0 mm 1 m/s 622 mmHg 84%
    05:00 +6°C° 0 mm 1 m/s 622 mmHg 84%
    06:00 +9°C° 0 mm 1 m/s 623 mmHg 76%
    07:00 +11°C° 0 mm 1 m/s 624 mmHg 68%
    08:00 +14°C° 0 mm 1 m/s 626 mmHg 60%
    09:00 +15°C° 0.2 mm 1 m/s 626 mmHg 61%
    10:00 +15°C° 0.2 mm 1 m/s 626 mmHg 62%
    11:00 +16°C° 0.2 mm 2 m/s 626 mmHg 62%
    12:00 +15°C° 1.2 mm 1 m/s 626 mmHg 67%
    13:00 +15°C° 1.2 mm 1 m/s 625 mmHg 72%
    14:00 +14°C° 1.2 mm 1 m/s 625 mmHg 76%
    15:00 +14°C° 1.4 mm 1 m/s 624 mmHg 77%
    16:00 +14°C° 1.4 mm 1 m/s 624 mmHg 77%
    17:00 +14°C° 1.4 mm 1 m/s 624 mmHg 77%
    18:00 +12°C° 1.1 mm 1 m/s 623 mmHg 82%
    19:00 +10°C° 1.1 mm 1 m/s 622 mmHg 87%
    20:00 +7°C° 1.1 mm 0 m/s 622 mmHg 93%
    21:00 +8°C° 0.6 mm 1 m/s 622 mmHg 93%
    22:00 +7°C° 0.6 mm 1 m/s 621 mmHg 93%
    23:00 +7°C° 0.6 mm 1 m/s 621 mmHg 93%

    Poimâine, 24 Mai, Vineri

    Timp Temperatura Precipitaţii Vânt Presiune Umiditate
    00:00 +6°C° 0.8 mm 1 m/s 621 mmHg 94%
    01:00 +6°C° 0.8 mm 1 m/s 621 mmHg 94%
    02:00 +6°C° 0.8 mm 1 m/s 621 mmHg 94%
    03:00 +6°C° 1 mm 1 m/s 621 mmHg 95%
    04:00 +6°C° 1 mm 1 m/s 621 mmHg 96%
    05:00 +6°C° 1 mm 1 m/s 621 mmHg 96%
    06:00 +7°C° 1.3 mm 1 m/s 621 mmHg 95%
    07:00 +8°C° 1.3 mm 1 m/s 621 mmHg 94%
    08:00 +9°C° 1.3 mm 1 m/s 622 mmHg 93%
    09:00 +9°C° 1.1 mm 1 m/s 622 mmHg 92%
    10:00 +9°C° 1.1 mm 1 m/s 622 mmHg 91%
    11:00 +9°C° 1.1 mm 1 m/s 622 mmHg 91%
    12:00 +10°C° 0.7 mm 1 m/s 622 mmHg 89%
    13:00 +10°C° 0.7 mm 1 m/s 622 mmHg 88%
    14:00 +10°C° 0.7 mm 1 m/s 622 mmHg 86%
    15:00 +11°C° 1 mm 1 m/s 621 mmHg 86%
    16:00 +11°C° 1 mm 1 m/s 621 mmHg 85%
    17:00 +10°C° 1 mm 0 m/s 621 mmHg 84%
    18:00 +10°C° 0.9 mm 1 m/s 621 mmHg 87%
    19:00 +9°C° 0.9 mm 1 m/s 620 mmHg 89%
    20:00 +8°C° 0.9 mm 1 m/s 620 mmHg 91%
    21:00 +7°C° 0.5 mm 1 m/s 620 mmHg 92%
    22:00 +7°C° 0.5 mm 1 m/s 620 mmHg 93%
    23:00 +6°C° 0.5 mm 1 m/s 621 mmHg 94%

    25 Mai, Sâmbătă

    Timp Temperatura Precipitaţii Vânt Presiune Umiditate
    00:00 +6°C° 0 mm 1 m/s 620 mmHg 94%
    01:00 +6°C° 0 mm 1 m/s 620 mmHg 94%
    02:00 +5°C° 0 mm 1 m/s 620 mmHg 94%
    03:00 +5°C° 0 mm 1 m/s 620 mmHg 93%
    04:00 +5°C° 0 mm 1 m/s 620 mmHg 93%
    05:00 +5°C° 0 mm 1 m/s 621 mmHg 93%
    06:00 +7°C° 0 mm 1 m/s 622 mmHg 88%
    07:00 +9°C° 0 mm 1 m/s 623 mmHg 82%
    08:00 +11°C° 0 mm 1 m/s 624 mmHg 76%
    09:00 +12°C° 0.3 mm 1 m/s 625 mmHg 71%
    10:00 +14°C° 0.3 mm 1 m/s 625 mmHg 65%
    11:00 +15°C° 0.3 mm 1 m/s 626 mmHg 59%
    12:00 +15°C° 0.9 mm 1 m/s 626 mmHg 62%
    13:00 +15°C° 0.9 mm 1 m/s 626 mmHg 64%
    14:00 +15°C° 0.9 mm 1 m/s 625 mmHg 67%
    15:00 +14°C° 1.1 mm 1 m/s 625 mmHg 71%
    16:00 +14°C° 1.1 mm 1 m/s 625 mmHg 75%
    17:00 +13°C° 1.1 mm 1 m/s 625 mmHg 79%
    18:00 +12°C° 0.5 mm 1 m/s 624 mmHg 83%
    19:00 +10°C° 0.5 mm 0 m/s 624 mmHg 86%
    20:00 +8°C° 0.5 mm 0 m/s 624 mmHg 90%
    21:00 +9°C° 0 mm 1 m/s 624 mmHg 90%
    22:00 +8°C° 0 mm 1 m/s 624 mmHg 90%
    23:00 +8°C° 0 mm 1 m/s 624 mmHg 90%

    26 Mai, Duminică

    Timp Temperatura Precipitaţii Vânt Presiune Umiditate
    00:00 +8°C° 0 mm 1 m/s 624 mmHg 90%
    01:00 +8°C° 0 mm 1 m/s 624 mmHg 89%
    02:00 +8°C° 0 mm 1 m/s 624 mmHg 89%
    03:00 +7°C° 0 mm 1 m/s 624 mmHg 90%
    04:00 +7°C° 0 mm 1 m/s 624 mmHg 90%
    05:00 +7°C° 0 mm 1 m/s 624 mmHg 90%
    06:00 +9°C° 0 mm 1 m/s 625 mmHg 84%
    07:00 +10°C° 0 mm 0 m/s 626 mmHg 78%
    08:00 +13°C° 0 mm 0 m/s 627 mmHg 71%
    09:00 +15°C° 0 mm 1 m/s 627 mmHg 66%
    10:00 +16°C° 0 mm 1 m/s 628 mmHg 61%
    11:00 +17°C° 0 mm 2 m/s 628 mmHg 56%
    12:00 +17°C° 0.5 mm 2 m/s 628 mmHg 60%
    13:00 +16°C° 0.5 mm 2 m/s 627 mmHg 64%
    14:00 +16°C° 0.5 mm 1 m/s 627 mmHg 67%
    15:00 +16°C° 0.9 mm 1 m/s 627 mmHg 70%
    16:00 +16°C° 0.9 mm 1 m/s 626 mmHg 72%
    17:00 +15°C° 0.9 mm 1 m/s 626 mmHg 74%
    18:00 +14°C° 0.7 mm 1 m/s 626 mmHg 80%
    19:00 +12°C° 0.7 mm 1 m/s 625 mmHg 86%
    20:00 +10°C° 0.7 mm 1 m/s 624 mmHg 92%
    21:00 +10°C° 0.3 mm 1 m/s 624 mmHg 92%
    22:00 +10°C° 0.3 mm 1 m/s 624 mmHg 92%
    23:00 +9°C° 0.3 mm 1 m/s 625 mmHg 91%

    27 Mai, Luni

    Timp Temperatura Precipitaţii Vânt Presiune Umiditate
    00:00 +9°C° 0 mm 1 m/s 624 mmHg 90%
    01:00 +9°C° 0 mm 1 m/s 624 mmHg 88%
    02:00 +9°C° 0 mm 1 m/s 624 mmHg 86%
    03:00 +9°C° 0 mm 1 m/s 624 mmHg 85%
    04:00 +9°C° 0 mm 1 m/s 625 mmHg 84%
    05:00 +9°C° 0 mm 1 m/s 625 mmHg 83%
    06:00 +11°C° 0 mm 1 m/s 626 mmHg 79%
    07:00 +12°C° 0 mm 0 m/s 627 mmHg 74%
    08:00 +14°C° 0 mm 0 m/s 627 mmHg 70%
    09:00 +16°C° 0 mm 1 m/s 628 mmHg 64%
    10:00 +19°C° 0 mm 1 m/s 629 mmHg 58%
    11:00 +20°C° 0 mm 1 m/s 629 mmHg 52%
    12:00 +19°C° 0.8 mm 1 m/s 629 mmHg 61%
    13:00 +18°C° 0.8 mm 1 m/s 628 mmHg 69%
    14:00 +16°C° 0.8 mm 1 m/s 627 mmHg 78%
    15:00 +16°C° 0.9 mm 1 m/s 627 mmHg 80%
    16:00 +16°C° 0.9 mm 1 m/s 627 mmHg 82%
    17:00 +16°C° 0.9 mm 1 m/s 627 mmHg 84%
    18:00 +15°C° 0.5 mm 1 m/s 627 mmHg 87%
    19:00 +13°C° 0.5 mm 1 m/s 626 mmHg 91%
    20:00 +12°C° 0.5 mm 1 m/s 626 mmHg 94%
    21:00 +12°C° 0 mm 1 m/s 626 mmHg 94%
    22:00 +11°C° 0 mm 1 m/s 626 mmHg 94%
    23:00 +11°C° 0 mm 1 m/s 626 mmHg 95%
    Arată mai mult